CAPE
0 0 0 0 0 0 0 0 0 0 0 129 217 266 130 117 67 41 98 112 104 132 208 320 313 319 380 361 275 205 401 405 519 659 743 809 681 430 367 914 1194 1106 852 781
0 0 0 0 0 0 0 0 0 11 110 228 246 257 156 177 127 76 6 4 8 45 92 106 44 128 280 281 349 332 371 589 536 676 769 904 644 335 547 876 1012 894 1170 1199
0 0 0 0 0 0 0 0 0 0 245 291 337 288 174 132 181 122 49 7 1 0 0 0 0 0 79 173 218 284 395 456 524 609 749 779 500 661 586 840 1073 899 511 766
0 0 0 0 0 0 0 0 0 5 17 0 177 0 20 227 143 136 99 56 17 0 0 5 0 0 1 6 76 183 349 356 429 607 627 718 426 407 641 1240 851 321 152 235
0 0 0 0 0 0 0 0 0 0 0 0 1 25 30 2 168 103 96 96 71 24 0 0 0 0 0 0 33 109 273 278 358 425 555 702 526 593 1205 956 901 628 246 10
0 0 0 0 0 0 0 0 0 0 0 0 0 10 0 1 54 182 153 120 132 85 5 0 0 0 0 10 34 70 140 227 360 374 413 548 357 674 912 846 839 594 267 147
0 0 0 0 0 0 0 0 0 0 0 0 0 0 0 0 82 95 170 133 118 136 37 5 1 0 3 13 36 47 112 189 307 320 307 317 369 673 755 970 918 607 448 700
0 0 0 0 0 0 0 0 0 0 0 0 0 0 85 10 3 87 96 282 182 168 83 35 12 0 6 12 12 25 56 181 210 268 284 337 428 640 684 838 1066 1011 813 1211
0 0 0 0 0 0 0 0 0 0 0 0 0 55 75 244 438 3 46 296 412 298 169 89 36 0 0 6 15 24 51 110 150 206 296 278 367 524 724 791 874 1172 1315 1397
0 0 0 0 0 0 0 0 0 0 0 0 73 9 0 247 553 382 213 352 561 554 384 187 88 8 2 0 5 34 119 87 114 169 248 245 335 537 704 905 925 1157 1367 1452
0 0 0 0 0 0 0 0 0 0 0 0 0 0 0 1 65 57 555 639 665 735 613 413 250 23 2 1 6 47 136 184 155 176 273 259 338 493 684 880 1021 1096 1393 1586
0 0 0 0 0 0 0 0 0 0 0 0 0 0 0 29 19 213 210 476 691 758 709 625 489 188 86 38 36 116 210 226 235 277 331 318 457 543 639 788 1000 1244 1315 1654
0 0 0 0 0 0 0 0 0 0 0 0 0 0 0 181 349 462 408 341 434 680 637 584 595 465 256 173 199 243 336 337 394 424 385 396 493 555 656 760 858 1090 1190 1364
0 0 0 0 0 0 2 27 0 0 0 0 0 0 0 122 234 643 906 871 560 504 663 610 624 638 555 351 328 379 377 444 577 598 598 549 529 552 616 906 979 939 1096 1183
0 0 0 0 0 0 4 18 13 0 0 0 0 0 73 444 783 1139 1429 2121 1064 776 693 636 619 656 581 550 551 507 514 615 678 731 747 722 756 816 847 948 1075 1176 1210 1290
0 0 0 0 0 0 0 16 30 12 31 73 145 61 446 697 1367 1551 1800 2302 2756 2744 2720 1966 818 516 536 469 536 627 664 674 823 836 795 936 1029 1089 1117 1226 1280 1396 1448 1567
0 0 0 0 0 0 0 0 0 0 29 100 55 380 586 739 695 980 1327 1275 1488 1736 2771 3204 3374 3353 2176 919 584 619 683 848 895 921 1071 1195 1262 1261 1279 1357 1501 1545 1598 1946
0 0 0 0 0 0 0 3 0 10 47 97 257 526 607 414 250 325 233 166 275 556 805 1572 2891 3310 3380 3382 2827 1789 849 680 829 1015 1147 1308 1386 1368 1481 1581 1634 1812 2006 2111
0 0 0 0 0 0 0 1 1 0 0 14 38 428 492 460 198 166 71 12 7 14 9 130 1149 2368 3037 3170 3375 3182 2479 1195 986 1037 1170 1335 1411 1403 1533 1621 1765 1983 2177 2210
0 0 0 0 0 0 0 0 0 0 0 0 0 3 219 465 706 180 86 88 74 25 3 0 0 349 1805 2499 2704 2772 2912 3042 2923 3032 2670 1947 1669 1672 1777 1919 2169 2382 2395 1924
0 0 0 0 0 0 0 0 0 0 0 0 2 19 4 76 417 155 176 239 75 0 0 0 0 0 828 1609 2546 1360 2084 2208 2587 2694 2669 2528 2300 2143 2140 2249 2297 2086 1525 1026
0 0 0 0 0 0 0 0 0 0 0 0 6 20 29 16 0 0 45 182 214 78 0 0 0 0 38 820 1593 1642 1066 1997 2177 2230 2219 2191 1936 1756 1718 1589 1167 1109 975 825
0 0 0 0 0 0 0 0 0 0 0 0 0 3 1 32 43 19 13 46 56 294 107 43 3 14 25 143 1651 1550 1462 1790 1802 1802 1784 1820 1443 1314 1145 1059 963 786 603 570
0 0 0 0 0 0 0 0 0 0 0 0 13 3 86 119 273 283 133 52 26 54 106 86 80 83 38 23 1431 2184 2214 1939 1703 1537 1673 1687 1526 1257 994 748 582 565 528 523
0 0 0 0 0 0 0 0 0 0 0 0 10 107 212 532 694 555 235 125 48 5 52 126 167 99 70 87 1579 2099 2004 1693 1313 1530 1530 1274 1169 903 579 257 333 407 231 244
0 0 0 0 0 0 0 0 0 0 0 4 34 158 486 673 779 763 622 459 154 0 0 15 39 66 190 229 1334 1422 2332 1755 1709 1467 1324 1236 942 593 474 406 164 0 4 0
CIN
0 0 0 0 0 0 0 0 0 0 0 -180 -161 -159 -221 -244 -235 -234 -197 -170 -156 -110 -65 -75 -107 -115 -111 -130 -149 -179 -147 -147 -133 -111 -79 -60 -53 -58 -69 -55 -47 -65 -68 -71
0 0 0 0 0 0 0 0 0 -119 -183 -188 -202 -169 -235 -244 -222 -207 -54 -261 -177 -199 -158 -180 -264 -187 -118 -122 -134 -152 -145 -137 -134 -115 -85 -59 -56 -78 -66 -61 -67 -82 -58 -67
0 0 0 0 0 0 0 0 0 0 -187 -222 -189 -143 -218 -267 -259 -253 -261 -253 -120 0 0 0 0 0 -184 -145 -153 -156 -157 -159 -137 -131 -113 -100 -113 -102 -94 -75 -57 -79 -120 -105
0 0 0 0 0 0 0 0 0 -148 -21 -5 -196 0 -191 -252 -262 -263 -255 -284 -277 0 0 -214 0 0 -81 -129 -226 -204 -177 -162 -160 -158 -128 -107 -116 -103 -69 -38 -74 -138 -212 -190
0 0 0 0 0 0 0 0 0 0 0 0 -85 -109 -86 -106 -220 -257 -255 -244 -255 -281 0 0 0 0 0 0 -235 -231 -235 -191 -169 -166 -149 -133 -136 -89 -39 -68 -86 -127 -196 -283
0 0 0 0 0 0 0 0 0 0 0 0 0 -147 0 -34 -117 -168 -270 -247 -250 -282 -260 0 0 0 0 -270 -272 -242 -260 -214 -188 -183 -178 -162 -164 -106 -71 -82 -80 -110 -163 -190
0 0 0 0 0 0 0 0 0 0 0 0 0 0 0 0 -175 -187 -191 -246 -268 -255 -303 -190 -111 0 -329 -293 -253 -275 -284 -208 -202 -204 -190 -200 -185 -125 -104 -78 -66 -86 -97 -96
0 0 0 0 0 0 0 0 0 0 0 0 0 0 -41 -183 -26 -275 -286 -222 -290 -281 -278 -300 -321 -20 -312 -298 -257 -254 -265 -245 -246 -218 -196 -200 -186 -150 -136 -114 -72 -70 -87 -85
0 0 0 0 0 0 0 0 0 0 0 0 0 -81 -127 -117 -122 -72 -256 -249 -223 -254 -278 -319 -307 -50 0 -293 -288 -251 -231 -242 -266 -233 -213 -207 -206 -193 -159 -141 -122 -88 -86 -82
0 0 0 0 0 0 0 0 0 0 0 0 -64 -100 0 -52 -68 -130 -173 -172 -184 -194 -230 -276 -343 -343 -153 0 -204 -283 -261 -216 -219 -239 -220 -195 -182 -181 -170 -145 -141 -113 -91 -93
0 0 0 0 0 0 0 0 0 0 0 0 0 0 0 -20 -253 -243 -167 -170 -165 -151 -173 -228 -313 -400 -356 -233 -346 -286 -297 -286 -264 -278 -223 -199 -186 -185 -192 -166 -143 -131 -103 -96
0 0 0 0 0 0 0 0 0 0 0 0 0 0 0 -409 -406 -363 -276 -252 -227 -199 -193 -210 -262 -364 -389 -337 -322 -310 -294 -289 -252 -243 -245 -233 -211 -220 -202 -184 -146 -128 -122 -98
0 0 0 0 0 0 0 0 0 0 0 0 0 0 0 -418 -349 -371 -293 -257 -255 -234 -241 -273 -258 -276 -333 -317 -310 -325 -337 -294 -274 -289 -263 -239 -236 -220 -203 -195 -164 -156 -144 -140
0 0 0 0 0 0 -57 -137 0 0 0 0 0 0 0 -306 -397 -369 -351 -278 -226 -234 -250 -280 -249 -250 -260 -298 -287 -292 -281 -295 -302 -302 -299 -254 -236 -230 -199 -186 -206 -203 -185 -165
0 0 0 0 0 0 -97 -113 -111 -6 0 0 0 0 -218 -415 -456 -437 -381 -238 -256 -267 -280 -282 -273 -282 -335 -358 -308 -299 -291 -286 -280 -299 -289 -261 -260 -245 -250 -222 -220 -218 -203 -200
0 0 0 0 0 -3 0 -131 -117 -117 -162 -146 -154 -155 -405 -410 -286 -261 -257 -186 -163 -194 -197 -274 -332 -336 -283 -303 -273 -284 -285 -280 -322 -271 -236 -254 -272 -283 -267 -268 -250 -259 -240 -236
0 0 0 0 0 0 0 0 0 0 -191 -144 -140 -121 -301 -305 -371 -339 -291 -357 -317 -282 -124 -131 -133 -152 -259 -324 -335 -257 -292 -342 -325 -277 -286 -292 -288 -274 -272 -285 -287 -274 -255 -240
0 0 0 0 0 0 0 -157 0 -94 -175 -210 -178 -194 -225 -346 -462 -474 -534 -596 -510 -439 -365 -255 -104 -69 -121 -169 -241 -331 -402 -431 -390 -351 -332 -323 -319 -309 -300 -305 -301 -292 -261 -208
0 0 0 0 0 0 0 -47 -22 0 0 -272 -241 -182 -183 -257 -351 -416 -499 -644 -695 -674 -116 -499 -156 -72 -74 -102 -132 -196 -294 -428 -432 -405 -391 -407 -410 -378 -368 -344 -308 -260 -196 -149
0 0 0 0 0 0 0 0 0 0 0 0 0 -181 -148 -122 -76 -279 -410 -430 -434 -558 -482 0 0 -255 -84 -115 -137 -141 -182 -192 -205 -216 -260 -350 -402 -390 -364 -319 -254 -178 -152 -182
0 0 0 0 0 0 0 0 0 0 0 0 -36 -210 -68 -154 -107 -251 -320 -250 -385 -320 0 0 0 -235 -79 -81 -113 -139 -173 -156 -210 -211 -225 -242 -281 -288 -283 -231 -201 -216 -257 -301
0 0 0 0 0 0 0 0 0 0 0 0 -125 -197 -174 -166 0 0 -244 -211 -241 -324 0 -140 0 0 -274 -100 -65 -104 -164 -226 -238 -246 -228 -224 -263 -288 -278 -246 -328 -327 -338 -315
0 0 0 0 0 0 0 0 0 0 0 0 0 -177 -19 -150 -163 -188 -214 -245 -309 -236 -388 -400 -389 -334 -326 -200 -43 -74 -149 -222 -240 -252 -249 -244 -300 -331 -326 -283 -296 -295 -333 -321
0 0 0 0 0 0 0 0 0 0 0 0 -163 -42 -137 -114 -123 -92 -128 -154 -184 -230 -227 -184 -276 -315 -335 -363 -112 -74 -122 -175 -214 -212 -213 -233 -227 -261 -284 -289 -297 -280 -258 -243
0 0 0 0 0 0 0 0 0 0 0 0 -65 -116 -109 -92 -73 -97 -95 -125 -181 -118 -265 -248 -175 -173 -209 -268 -96 -74 -110 -158 -172 -167 -154 -192 -217 -236 -326 -398 -332 -210 -249 -229
0 0 0 0 0 0 0 0 0 0 0 -87 -95 -82 -83 -89 -65 -69 -62 -80 -123 0 0 -234 -245 -216 -155 -153 -93 -73 -33 -123 -109 -103 -123 -143 -174 -226 -255 -231 -278 0 -46 0
Wind_Speed
7 9 19 15 14 10 8 8 9 10 13 16 16 17 18 20 22 21 23 25 28 30 31 31 30 29 28 27 28 28 27 25 24 25 24 23 22 21 17 16 16 17 13 13
9 23 20 18 14 11 11 12 16 15 12 16 14 17 18 19 21 21 21 24 26 30 30 31 31 29 27 26 26 26 27 25 24 24 21 19 14 14 14 11 10 12 12 14
16 14 13 19 17 12 15 10 8 16 18 14 14 12 15 18 20 22 20 20 23 27 30 30 30 30 29 28 26 26 26 26 24 21 18 7 8 8 9 9 11 13 14 15
20 16 9 5 19 14 10 12 10 15 16 14 11 16 14 15 18 19 21 21 22 23 28 31 30 29 30 29 26 26 26 25 22 19 20 17 16 16 16 15 15 17 16 15
11 12 10 15 14 12 18 19 17 13 14 14 16 14 17 15 16 19 21 23 23 24 27 31 30 29 30 29 28 27 24 24 20 18 18 18 19 17 14 19 17 17 17 16
21 22 19 14 17 6 20 19 20 17 15 13 16 8 15 17 14 17 19 23 26 23 27 31 31 29 29 28 27 26 23 23 20 17 19 20 21 20 20 21 18 18 17 17
19 18 18 16 18 15 14 17 18 14 16 15 16 4 13 13 12 14 17 23 28 27 31 31 29 29 29 28 26 22 18 21 21 20 23 23 25 24 23 22 20 18 18 17
14 13 11 11 11 15 13 17 13 15 14 16 16 15 13 13 9 11 16 21 23 26 35 30 29 27 28 28 26 21 19 20 23 22 26 26 26 26 23 23 22 20 18 18
11 10 10 11 15 15 12 12 13 13 17 19 17 7 14 17 20 18 16 17 22 26 30 28 28 28 29 27 27 25 22 26 27 26 26 27 27 27 26 24 22 22 20 18
10 12 9 12 11 15 11 9 13 15 18 18 19 18 18 18 18 18 15 15 20 24 25 25 27 26 28 28 27 25 24 26 27 25 25 25 27 27 26 25 25 24 21 17
8 13 12 12 14 12 10 13 14 14 18 20 21 18 19 20 18 19 17 12 15 22 22 24 24 25 28 27 26 27 26 23 22 23 22 22 24 26 26 27 26 25 21 14
12 14 14 10 11 13 12 14 16 18 18 18 20 22 19 21 18 19 18 16 5 20 21 21 21 22 24 26 26 27 25 23 23 20 19 22 21 23 26 27 26 23 18 11
10 13 10 12 15 13 16 17 17 17 19 21 22 22 18 24 23 22 21 19 17 5 18 14 17 20 21 25 25 25 24 26 25 23 23 24 24 25 26 25 26 22 19 14
14 12 12 9 14 13 14 17 18 20 23 21 24 30 28 28 27 26 24 22 19 13 4 6 14 17 15 18 22 25 26 27 26 25 26 28 27 28 27 24 19 19 15 12
15 10 11 11 11 11 11 13 16 22 23 26 25 27 30 29 27 25 23 21 15 14 14 12 0 4 1 3 9 22 28 26 25 25 23 24 26 28 29 24 17 13 11 9
20 16 13 10 13 14 13 14 18 19 19 23 26 28 25 24 20 20 19 17 14 12 13 12 12 13 10 6 5 12 19 24 22 25 25 21 16 17 20 19 17 12 11 8
22 16 16 15 17 18 16 15 17 16 17 20 24 24 23 20 20 20 19 17 16 13 12 11 12 12 13 17 14 3 4 6 17 26 29 27 6 13 15 12 11 12 11 9
18 14 17 19 15 11 19 18 16 17 17 17 21 22 19 20 19 19 18 16 15 12 14 13 13 14 14 15 16 14 11 7 5 8 18 28 17 10 9 8 9 10 14 14
2 2 9 8 5 22 18 16 17 18 20 16 21 21 19 18 17 19 16 16 15 15 13 12 14 15 16 15 15 14 12 11 13 15 18 21 16 9 8 8 9 12 16 17
11 8 3 9 7 7 19 17 19 20 22 18 21 21 21 19 23 21 19 17 20 19 19 23 23 20 18 15 16 16 16 15 16 18 18 15 14 13 13 14 16 17 17 17
13 12 7 8 9 14 16 16 15 14 19 21 21 22 21 21 21 18 20 20 21 21 22 23 27 28 23 21 19 18 18 18 19 19 19 18 16 17 19 19 19 16 16 15
13 13 11 11 12 12 13 13 13 18 17 20 21 20 20 20 21 21 21 23 24 26 24 24 34 27 26 25 25 22 19 20 20 20 20 20 20 20 20 19 19 18 16 15
11 11 13 11 13 11 13 14 17 17 18 20 19 19 20 20 18 18 19 20 20 20 13 6 13 12 19 14 31 23 21 22 22 21 21 21 21 20 19 18 17 16 15 14
11 11 12 14 13 13 17 18 15 17 18 17 17 17 17 20 21 21 18 17 14 12 10 11 17 13 10 15 18 21 22 20 21 21 20 20 20 19 18 17 17 15 15 16
12 10 12 12 13 16 17 19 18 17 15 13 12 10 17 19 21 20 20 18 15 12 8 6 7 12 14 16 17 17 18 18 18 19 18 18 18 17 17 17 18 17 17 16
6 8 7 11 13 13 14 18 16 15 16 15 13 13 17 20 22 22 22 22 19 17 15 14 14 13 9 9 10 18 18 16 15 14 15 15 14 14 15 15 15 17 17 17
Wind_Direction
11 110 175 211 203 181 176 158 173 191 141 100 145 160 134 136 144 135 145 155 166 172 177 181 179 178 175 174 177 176 172 167 167 182 184 190 191 192 152 154 315 240 126 127
307 226 208 257 202 159 146 133 100 99 119 126 140 177 163 147 154 146 144 156 163 173 177 179 181 176 174 171 171 172 178 172 168 172 166 157 131 144 137 120 43 32 100 145
278 296 299 274 231 222 108 119 148 85 38 88 91 153 142 159 163 166 158 154 158 168 174 176 177 178 177 177 173 173 174 176 169 163 149 77 7 56 88 97 107 128 143 150
280 295 322 41 288 322 65 233 194 80 67 53 105 278 121 148 164 166 166 161 160 162 174 184 177 176 178 180 178 177 174 172 165 154 157 146 143 143 144 129 147 164 163 145
300 308 313 298 322 17 310 290 267 73 59 68 57 303 19 79 146 166 168 169 167 164 169 179 176 176 178 179 178 176 168 166 159 153 153 152 160 152 121 165 170 172 165 155
276 267 287 304 305 35 307 287 294 330 25 93 53 152 322 72 114 152 161 173 172 164 168 178 179 176 178 177 175 172 164 163 159 154 158 160 169 165 162 174 170 166 163 162
288 283 286 297 300 324 334 327 326 343 328 325 36 304 221 133 134 136 146 167 170 170 176 179 177 178 179 176 171 162 158 162 163 163 171 173 180 180 185 183 175 168 182 174
308 301 300 304 313 320 331 320 337 332 328 308 44 280 4 114 149 146 146 158 163 170 182 177 177 175 175 175 173 166 162 163 169 168 178 182 184 188 185 187 189 187 176 181
327 328 333 327 306 308 333 337 316 323 297 253 253 108 287 2 352 24 108 133 154 166 175 175 175 176 180 177 177 175 171 175 178 177 179 184 188 192 192 189 185 192 189 179
320 303 348 353 336 329 332 11 331 306 292 289 288 311 334 334 330 343 61 119 147 161 167 170 176 175 178 181 180 176 175 176 179 176 177 183 188 192 193 193 195 194 192 175
301 295 311 336 315 331 338 322 326 332 306 292 285 299 312 320 325 319 339 82 133 157 157 164 168 172 178 177 176 178 177 174 171 174 176 177 184 189 193 197 199 199 190 169
281 294 299 317 337 347 339 329 321 309 313 313 300 292 315 322 316 316 325 328 111 165 164 159 158 160 168 173 174 176 173 174 177 174 174 181 181 187 194 200 200 194 186 171
288 297 302 303 303 321 312 316 320 322 311 302 297 294 309 308 302 298 303 306 311 131 156 146 151 156 159 168 171 171 172 180 183 180 183 187 189 192 196 197 200 195 193 190
295 310 309 311 309 312 313 318 321 315 309 309 299 281 292 297 292 290 293 297 300 314 1 130 149 159 156 157 167 176 181 184 185 186 191 196 197 199 200 198 191 194 195 198
300 339 334 335 332 337 340 339 337 322 314 300 302 298 293 304 298 291 297 304 315 307 295 287 114 134 233 243 159 175 192 187 184 186 186 191 196 203 206 202 199 201 205 212
290 308 317 326 325 325 328 334 330 328 326 311 299 294 305 307 312 308 311 316 319 319 316 318 305 289 288 294 170 171 181 190 186 194 195 189 183 188 195 198 203 211 221 238
294 302 301 305 304 310 316 318 324 329 331 321 307 305 312 317 310 305 300 314 318 314 326 340 332 317 296 285 295 276 200 184 184 199 213 215 241 198 199 205 212 218 232 268
301 304 302 302 307 306 313 319 322 321 327 331 321 317 319 319 316 311 316 312 322 328 315 338 334 314 307 304 303 306 301 292 271 288 288 277 290 280 278 247 241 276 295 296
65 22 327 326 306 307 318 317 318 318 320 329 322 322 321 317 323 312 309 313 313 309 317 328 321 316 305 313 317 320 324 316 307 297 293 290 295 283 264 249 271 296 302 304
13 3 34 352 327 320 316 318 314 316 310 325 323 319 321 314 302 301 303 295 294 310 305 321 304 297 306 321 323 321 318 320 316 310 307 309 307 305 303 304 306 308 307 307
5 6 12 351 341 338 332 330 334 326 321 327 326 323 320 315 310 303 298 301 297 296 306 313 295 275 293 307 310 324 320 315 312 314 313 317 320 315 311 311 312 313 314 313
350 356 360 355 347 340 355 351 340 330 333 332 333 333 330 324 317 305 297 295 297 293 302 295 276 230 279 299 299 308 315 313 314 315 312 317 317 321 321 319 316 313 312 310
6 5 355 2 355 14 1 351 335 335 330 328 329 328 330 330 332 324 316 310 304 306 307 290 293 309 325 327 281 309 308 307 310 312 316 319 322 321 326 333 330 327 325 322
1 6 355 354 6 3 351 342 344 340 334 327 326 332 338 328 325 323 326 329 333 328 301 283 294 298 298 313 322 313 303 314 310 322 320 318 323 330 331 337 335 338 338 335
358 7 351 350 357 357 358 352 350 358 2 355 342 346 323 328 329 324 326 343 350 360 355 335 322 320 326 326 325 316 309 318 324 328 323 324 326 324 332 334 335 341 343 345
351 341 348 354 5 5 9 2 8 15 14 23 15 340 325 319 315 313 316 331 343 346 353 348 342 347 347 360 359 321 314 339 350 353 347 339 338 339 345 348 353 351 351 349